This is the latest recevied weather packets stored in our database for station/object WB4ZUT. If no packets are shown the sender has not sent any weather packets the latest 10 day(s).
| Time | Temp. | Humidity | Pressure | Rain* | Wind** | Luminosity | Snow |
|---|---|---|---|---|---|---|---|
| 1777723749 | 8.33° C | 86% | 1018.2 hPa | 0 mm | - | 14 W/m² | - |
| 1777723444 | 8.33° C | 87% | 1018 hPa | 0 mm | - | 9 W/m² | - |
| 1777723142 | 8.33° C | 87% | 1018.2 hPa | 0 mm | - | 6 W/m² | - |
| 1777722839 | 8.33° C | 87% | 1017.6 hPa | 0 mm | - | 6 W/m² | - |
| 1777722535 | 8.33° C | 87% | 1017.7 hPa | 0 mm | - | 8 W/m² | - |
| 1777722232 | 8.33° C | 89% | 1017.5 hPa | 0 mm | - | 9 W/m² | - |
| 1777721929 | 8.33° C | 89% | 1017.5 hPa | 0 mm | - | 8 W/m² | - |
| 1777721627 | 8.33° C | 90% | 1017.4 hPa | 0 mm | - | 9 W/m² | - |
| 1777721325 | 8.33° C | 91% | 1017.3 hPa | 0 mm | - | 12 W/m² | - |
| 1777721022 | 8.33° C | 91% | 1017.3 hPa | 0 mm | - | 14 W/m² | - |
| 1777720720 | 8.33° C | 90% | 1017.2 hPa | 0 mm | - | 11 W/m² | - |
| 1777720417 | 8.33° C | 90% | 1017.3 hPa | 0 mm | - | 7 W/m² | - |
| 1777720115 | 8.33° C | 90% | 1017.1 hPa | 0 mm | - | 3 W/m² | - |
| 1777719812 | 8.33° C | 90% | 1017.3 hPa | 0 mm | - | 1 W/m² | - |
| 1777719509 | 8.33° C | 90% | 1017.4 hPa | 0 mm | - | 0 W/m² | - |
| 1777719206 | 8.33° C | 90% | 1017.2 hPa | 0 mm | - | 0 W/m² | - |
| 1777718904 | 8.33° C | 89% | 1017.2 hPa | 0 mm | - | 0 W/m² | - |
| 1777718601 | 8.33° C | 89% | 1017.2 hPa | 0 mm | - | 0 W/m² | - |
| 1777718298 | 8.33° C | 89% | 1017.1 hPa | 0 mm | - | 0 W/m² | - |
| 1777717995 | 8.33° C | 89% | 1017.2 hPa | 0 mm | - | 0 W/m² | - |
| 1777717693 | 8.33° C | 89% | 1017.1 hPa | 0 mm | - | 0 W/m² | - |
| 1777717389 | 8.33° C | 90% | 1017.2 hPa | 0 mm | - | 0 W/m² | - |
| 1777717087 | 8.33° C | 90% | 1017 hPa | 0 mm | - | 0 W/m² | - |
| 1777716785 | 8.33° C | 90% | 1017.2 hPa | 0 mm | - | 0 W/m² | - |
| 1777716483 | 8.33° C | 90% | 1017.1 hPa | 0 mm | - | 0 W/m² | - |
* Rain latest hour (hover to see other rain measurements)
** Current wind speed in m/s (hover to see current wind gust speed)